Location: Burbank
(38.7788°N, 114.0429°W)
Time: 21:12:53
(UTC+00:00)

S-56A Canister/Altair - Pass Details

Date: 13 May 2026
Orbit: 632 x 2484 km, 38.9° (Epoch: 8 June)

Event Time Altitude Azimuth Distance (km) Brightness Sun altitude
Rises 09:34:21 0° 281° (WNW) 3,272 - -26.1°
Reaches altitude 10° 09:36:34 10° 275° (W) 2,491 - -25.8°
Maximum altitude 09:42:09 46° 203° (SSW) 1,422 - -25.2°
Exits shadow 09:43:25 42° 176° (S) 1,571 8.7 -25.1°
Drops below altitude 10° 09:50:21 10° 134° (SE) 3,622 10.9 -24.3°
Sets 09:54:13 0° 129° (SE) 4,919 11.6 -23.9°
